Regional Weather Roundup
Issued by NWS Grand Forks, ND

Home | Current Version | Previous Version | Graphics & Text | Print | Product List | Glossary On
Versions: 1 2 3 4 5 6 7 8 9 10 11 12 13 14 15 16 17 18 19 20 21 22 23 24 25 26 27 28 29 30 31 32 33 34 35 36 37 38 39 40 41 42 43 44 45 46 47 48 49 50
000
ASUS43 KFGF 231110
RWRFGF
PRAIRIE TO PINES  WEATHER ROUNDUP
NATIONAL WEATHER SERVICE EASTERN NORTH DAKOTA/GRAND FORKS ND
600 AM CDT SUN APR 23 2017

 **SATELLITE DATA USED TO AUGMENT SKY COVER AT AUTOMATED STATIONS**
 *****  WEATHER ACROSS EASTERN NORTH DAKOTA  *****

CITY           SKY/WX    TMP DP  RH WIND       PRES   REMARKS
GRAND FORKS    CLOUDY    32  22  66 NE16      30.23F WCI  21
GRAND FRKS AFB CLOUDY    30  19  63 NE13      30.22F WCI  20
DEVILS LAKE    CLOUDY    28  19  69 E16       30.20S WCI  16
FARGO          CLOUDY    34  32  92 N14       30.17S WCI  25
WAHPETON ARPT  CLOUDY    37  34  87 N13       30.12S
$$

 ***** WEATHER ACROSS CENTRAL AND WESTERN NORTH DAKOTA  *****

CITY           SKY/WX    TMP DP  RH WIND       PRES   REMARKS
BISMARCK       CLOUDY    34  28  79 E22G28    30.08S WCI  22
MINOT          CLOUDY    30  19  63 E17       30.15S WCI  18
JAMESTOWN      CLOUDY    29  26  89 NE17      30.14S WCI  17
MINOT AFB      CLOUDY    29  19  66 E16       30.15F WCI  18
GARRISON         N/A     29  27  92 E16G25    30.09F WCI  17
WILLISTON      CLOUDY    34  27  75 E12G21    30.07F
DICKINSON      CLOUDY    32  30  92 E21       29.96F WCI  20
HETTINGER      FOG       34  33  96 E20       29.95F VSB 3/4 WCI  23
$$

 *****  OTHER AIRPORT OBSERVATIONS IN OUR AREA  *****

CITY           SKY/WX    TMP DP  RH WIND       PRES   REMARKS
WALHALLA       NOT AVBL
GRAFTON AIRPOR FAIR      28  19  69 NE10G16   30.27F WCI  19
VALLEY CITY AR LGT RAIN  28  28 100 NE15      30.16F WCI  17
CANDO          NOT AVBL
CAVALIER APRT  FAIR      27  21  80 NE7       30.26F WCI  19
GWINNER        CLOUDY    32  32 100 MISG      30.11F
SHEYENNE NWR     N/A     32  30  91 NE13      29.95S WCI  22
ROLLA          CLOUDY    25  12  58 E14       30.21S WCI  13
 ***** THE ABOVE OBSERVATIONS ARE NON NWS ARE NOT QUALITY
       CONTROLLED AND MAY MIS-REPORT RAIN FOR SNOW...
$$

  *****  WEATHER ACROSS NORTHERN MINNESOTA  *****

CITY           SKY/WX    TMP DP  RH WIND       PRES   REMARKS
FLAG ISLAND    FAIR      28  10  47 NE15      30.27R WCI  17
WARROAD        FAIR      30  16  55 NE16      30.26F WCI  19
ROSEAU         FAIR      28  21  74 NE8       30.26F WCI  20
HALLOCK        MOCLDY    28  19  69 NE9       30.26F WCI  20
THF RVR FALLS  MOCLDY    30  24  78 NE14      30.22S WCI  19
BAUDETTE       FAIR      28  16  60 NE12      30.25R WCI  18
WASKISH        FAIR      30  27  86 NE7       30.24R WCI  23
CROOKSTON      CLOUDY    32  25  74 E9G17     30.24R WCI  24
STEPHEN NDAWN    N/A     28  19  69 NE12        N/A  WCI  18
GREENBUSH NDAW   N/A     28  21  74 NE12        N/A  WCI  18
$$
  *****  WEATHER ACROSS CENTRAL AND WEST MINNESOTA  *****

CITY           SKY/WX    TMP DP  RH WIND       PRES   REMARKS
FOSSTON        CLOUDY    30  28  93 NE12      30.18F WCI  21
BEMIDJI        CLOUDY    32  24  72 NE10      30.19R WCI  24
PARK RAPIDS    FLURRIES  34  29  82 NE9       30.15S
ELBOW LAKE     FAIR      41  37  86 NE13      30.11S
WADENA         CLOUDY    36  34  93 NE10      30.14R
DETROIT LAKES  LGT SNOW  34  32  93 E13       30.15F WCI  25
MOORHEAD       CLOUDY    34  32  93 NE13      30.17F WCI  25
FERGUS FALLS   CLOUDY    39  36  87 NE12G20   30.11F
MORRIS MN      FAIR      39  37  93 NE9       30.08S
STAPLES        LGT RAIN  37  34  87 NE10G18   30.14R
$$
  *****  WEATHER ELSEWHERE ACROSS MINNESOTA  *****

CITY           SKY/WX    TMP DP  RH WIND       PRES   REMARKS
DULUTH         FLURRIES  35  33  92 N9        30.14S
INTRNTL FALLS  FAIR      29  17  61 N9        30.24R WCI  20
ELY            CLOUDY    28  25  86 N5        30.18R WCI  23
CLOQUET        FLURRIES  36  32  87 N6        30.15R
WHEATON        MOCLDY    39  37  93 N8        30.12F
BRAINERD       CLOUDY    38  34  85 NE15      30.14R
HIBBING        LGT SNOW  30  30 100 NE6       30.17R FOG     WCI  24
ALEXANDRIA     MOCLDY    42  36  79 NE14      30.11R
SAINT CLOUD    CLOUDY    45  38  76 NE7       30.09R
MINNEAPOLIS    FAIR      51  36  56 W5        30.07R
$$

  *****  WEATHER ACROSS SOUTH DAKOTA  *****

CITY           SKY/WX    TMP DP  RH WIND       PRES   REMARKS
SIOUX FALLS    FAIR      49  34  56 SW8       30.08F
BROOKINGS      FAIR      45  33  63 SW7       30.07S
WATERTOWN      FAIR      36  33  89 VRB3      30.05F
HURON          FAIR      40  36  86 CALM      30.02F
SISSETON         N/A     39  37  92 N10       30.10F
ABERDEEN       CLOUDY    36  31  82 NE21G26   30.07F
MITCHELL       FAIR      49  35  58 SW10      30.05F
PIERRE         FAIR      47  31  53 SW9       29.96F
MOBRIDGE       FAIR      35  28  75 E24G33    29.96F WCI  23
RAPID CITY     FAIR      45  33  63 S14       29.89F
$$

  *****  SOME WEATHER IN NEARBY STATES *****

CITY           SKY/WX    TMP DP  RH WIND       PRES   REMARKS
GLASGOW MT     CLOUDY    38  33  82 E25G35    29.90F
GREAT FALLS MT MOCLDY    39  38  96 W5        29.80F
CHEYENNE WY    FAIR      33  28  81 W6        30.02F
SCOTTSBLUFF NE FAIR      41  30  65 E10       29.99F
OMAHA NE       FAIR      42  35  76 SE3       30.16F
DES MOINES IA  FAIR      45  30  55 SW3       30.15F
DAVENPORT IA     N/A     34  29  82 CALM      30.15F
CHICAGO IL     FAIR      39  29  67 W3        30.13S
EAU CLAIRE WI  FAIR      47  38  71 W6        30.05S
LA CROSSE WI   FAIR      47  40  76 SE9       30.09F
$$

  *****  SOME NATIONAL WEATHER *****

CITY           SKY/WX    TMP DP  RH WIND       PRES   REMARKS
LA GUARDIA NY  FAIR      48  36  63 N6        30.10R
RALEIGH NC     CLOUDY    55  53  93 NE7       30.01R
ATLANTA GA     CLOUDY    62  59  90 E9        29.83S
NEW ORLEANS LA MOCLDY    65  59  81 N12       29.89R
OKLAHOMA CITY  FAIR      42  38  85 NW8       30.17R
ALBUQUERQUE NM FAIR      47  29  49 NE17      30.21F
SALT LAKE CITY MOCLDY    52  34  50 S10       29.88F
LOS ANGELES CA FAIR      59  55  87 SW6       29.83S
BOISE ID       FAIR      52  39  61 S3        29.81S
SEATTLE WA     FAIR      46  44  93 CALM      29.95S
$$

*** WEATHER ACROSS MANITOBA...SASKATCHEWAN AND ONTARIO ***
                ***ONTARIO***

CITY           SKY/WX    TMP DP  RH WIND       PRES   REMARKS
GERALDTON      LGT SNOW  19  16  86 N5        30.16R WCI  13
THUNDER BAY    MOCLDY    32  21  64 NW7       30.19R
SIOUX LOOKOUT  PTCLDY    18  10  73 N3        30.25R
TORONTO        PTCLDY    39  30  70 W3        30.10R
BIG TROUT LK   CLEAR      3  -2  78 NW7       30.26S WCI  -9
PICKLE LAKE    PTCLDY    10   5  79 NW5       30.22  WCI   2
DRYDEN         CLEAR     19  12  73 N6        30.24S WCI  11
KENORA         PTCLDY    21  10  63 NE5       30.26S WCI  15
$$
                *** MANITOBA***

CITY           SKY/WX    TMP DP  RH WIND       PRES   REMARKS
BRANDON        MOCLDY    23  18  80 E6        30.25F WCI  16
DAUPHIN        CLEAR     21  19  93 CALM      30.25F
ISLAND LAKE    PTCLDY     7   3  85 CALM      30.32S
PILOT MOUND      N/A     25  16  68 E8          N/A  WCI  16
THE PAS        PTCLDY    16   9  73 NE5       30.31F WCI   9
THOMPSON       CLEAR     -9 -15  77 VRB2      30.33F
WINNIPEG       MOCLDY    25  18  74 NE5       30.30S WCI  19
LYNN LAKE      CLEAR    -11 -15  84 NW5       30.29F WCI -23
CHURCHILL      PTCLDY    -6  -9  84 NW9       30.32S WCI -22
GILLAM         PTCLDY    -8 -11  84 NW7       30.33F WCI -22
$$
                ***SASKATCHEWAN***

CITY           SKY/WX    TMP DP  RH WIND       PRES   REMARKS
ESTEVAN        FLURRIES  30  27  86 E18G25    30.12F WCI  18
KINDERSLEY     CLOUDY    32  28  86 E20G25    30.00F WCI  20
LLOYDMINSTER   CLOUDY    30  23  74 E8        30.08F WCI  23
PRINCE ALBERT  MOCLDY    23  18  80 E8        30.19F WCI  14
REGINA         CLOUDY    32  25  74 SE20G29   30.11F WCI  20
YORKTON        CLOUDY    28  21  74 SE5       30.18F WCI  23
N. BATTLEFORD  MOCLDY    30  23  74 E8        30.13F WCI  23
LA RONGE       CLEAR     14   9  79 NE5       30.27F WCI   6
SASKATOON      MOCLDY    32  21  64 E12       30.13F WCI  23
SWIFT CURRENT  CLOUDY    34  32  93 SE22G31   29.94F WCI  22
$$
NOTE: THESE ARE AUTOMATED STATIONS WITH LIMITED QUALITY CONTROL
      "FAIR" INDICATES FEW OR NO CLOUDS BELOW 12,000 FEET WITH NO
      SIGNIFICANT WEATHER AND/OR OBSTRUCTIONS TO VISIBILITY.
      SKY/WX - SKY CONDITION AND SIGNIFICANT WEATHER.
      TMP - AIR TEMPERATURE.    DP   - DEWPOINT TEMPERATURE.
      RH  - RELATIVE HUMIDITY.  PRES - PRESSURE.
      HX  - HEAT INDEX.         WCI  - WIND CHILL INDEX.
$




USA.gov is the U.S. government's official web portal to all federal, state and local government web resources and services.